TimeEDT,TemperatureF,Dew PointF,Humidity,Sea Level PressureIn,VisibilityMPH,Wind Direction,Wind SpeedMPH,Gust SpeedMPH,PrecipitationIn,Events,Conditions,WindDirDegrees,DateUTC
12:15 AM,57.2,44.6,63,30.11,10.0,NW,4.6,-,N/A,,Clear,310,2012-10-22 04:15:00
12:35 AM,57.2,44.6,63,30.10,10.0,WNW,4.6,-,N/A,,Clear,300,2012-10-22 04:35:00
12:55 AM,57.2,44.6,63,30.10,10.0,NW,3.5,-,N/A,,Clear,310,2012-10-22 04:55:00
1:15 AM,57.2,44.6,63,30.10,10.0,NW,4.6,-,N/A,,Clear,310,2012-10-22 05:15:00
1:55 AM,57.2,44.6,63,30.11,10.0,WNW,8.1,-,N/A,,Clear,300,2012-10-22 05:55:00
2:15 AM,57.2,42.8,59,30.11,10.0,NW,5.8,-,N/A,,Clear,310,2012-10-22 06:15:00
2:35 AM,57.2,44.6,63,30.11,10.0,WNW,6.9,-,N/A,,Clear,300,2012-10-22 06:35:00
2:55 AM,57.2,44.6,63,30.11,10.0,NW,9.2,-,N/A,,Clear,310,2012-10-22 06:55:00
3:15 AM,57.2,42.8,59,30.11,10.0,NW,6.9,-,N/A,,Clear,310,2012-10-22 07:15:00
3:35 AM,57.2,42.8,59,30.11,10.0,NW,5.8,-,N/A,,Clear,310,2012-10-22 07:35:00
3:55 AM,57.2,42.8,59,30.12,10.0,NW,5.8,-,N/A,,Clear,310,2012-10-22 07:55:00
4:15 AM,57.2,41.0,55,30.12,10.0,NW,9.2,-,N/A,,Clear,310,2012-10-22 08:15:00
4:55 AM,55.4,41.0,58,30.12,10.0,NW,6.9,-,N/A,,Clear,320,2012-10-22 08:55:00
5:15 AM,55.4,41.0,58,30.13,10.0,NW,6.9,-,N/A,,Clear,320,2012-10-22 09:15:00
5:35 AM,55.4,41.0,58,30.13,10.0,NW,9.2,-,N/A,,Clear,320,2012-10-22 09:35:00
5:55 AM,55.4,42.8,63,30.13,10.0,NW,9.2,-,N/A,,Clear,320,2012-10-22 09:55:00
6:15 AM,55.4,42.8,63,30.13,10.0,NNW,8.1,-,N/A,,Clear,330,2012-10-22 10:15:00
6:35 AM,55.4,42.8,63,30.14,10.0,NNW,5.8,-,N/A,,Clear,330,2012-10-22 10:35:00
6:55 AM,55.4,42.8,63,30.14,10.0,NNW,6.9,-,N/A,,Clear,330,2012-10-22 10:55:00
7:15 AM,55.4,42.8,63,30.15,10.0,NW,6.9,-,N/A,,Clear,310,2012-10-22 11:15:00
7:35 AM,55.4,44.6,67,30.15,10.0,NW,6.9,-,N/A,,Clear,310,2012-10-22 11:35:00
7:55 AM,55.4,42.8,63,30.16,10.0,NW,6.9,-,N/A,,Clear,320,2012-10-22 11:55:00
8:15 AM,55.4,44.6,67,30.16,10.0,NW,5.8,-,N/A,,Clear,320,2012-10-22 12:15:00
8:35 AM,57.2,44.6,63,30.17,10.0,NW,6.9,-,N/A,,Partly Cloudy,320,2012-10-22 12:35:00
8:55 AM,57.2,44.6,63,30.17,10.0,NW,6.9,-,N/A,,Clear,310,2012-10-22 12:55:00
9:15 AM,57.2,44.6,63,30.17,10.0,NW,8.1,-,N/A,,Clear,320,2012-10-22 13:15:00
9:35 AM,57.2,44.6,63,30.18,10.0,NW,10.4,16.1,N/A,,Clear,310,2012-10-22 13:35:00
9:55 AM,59.0,44.6,59,30.18,10.0,NW,8.1,16.1,N/A,,Clear,310,2012-10-22 13:55:00
10:15 AM,59.0,44.6,59,30.18,10.0,NW,6.9,-,N/A,,Clear,310,2012-10-22 14:15:00
10:35 AM,60.8,44.6,55,30.17,10.0,NW,10.4,16.1,N/A,,Clear,310,2012-10-22 14:35:00
10:55 AM,60.8,44.6,55,30.17,10.0,NW,10.4,16.1,N/A,,Clear,310,2012-10-22 14:55:00
11:15 AM,60.8,44.6,55,30.16,10.0,NW,9.2,-,N/A,,Clear,310,2012-10-22 15:15:00
11:35 AM,60.8,44.6,55,30.16,10.0,WNW,8.1,16.1,N/A,,Clear,300,2012-10-22 15:35:00
11:55 AM,62.6,44.6,52,30.16,10.0,WNW,9.2,17.3,N/A,,Clear,300,2012-10-22 15:55:00
12:15 PM,62.6,44.6,52,30.16,10.0,WNW,10.4,16.1,N/A,,Clear,290,2012-10-22 16:15:00
12:35 PM,62.6,44.6,52,30.15,10.0,WNW,8.1,-,N/A,,Clear,290,2012-10-22 16:35:00
12:55 PM,62.6,44.6,52,30.14,10.0,WNW,10.4,16.1,N/A,,Clear,300,2012-10-22 16:55:00
1:15 PM,62.6,44.6,52,30.13,10.0,WNW,13.8,17.3,N/A,,Clear,290,2012-10-22 17:15:00
1:35 PM,64.4,44.6,49,30.13,10.0,WNW,13.8,-,N/A,,Clear,290,2012-10-22 17:35:00
1:55 PM,64.4,44.6,49,30.12,10.0,WNW,8.1,16.1,N/A,,Clear,290,2012-10-22 17:55:00
2:15 PM,64.4,42.8,45,30.11,10.0,NW,11.5,17.3,N/A,,Clear,310,2012-10-22 18:15:00
2:35 PM,64.4,44.6,49,30.11,10.0,WNW,8.1,16.1,N/A,,Clear,300,2012-10-22 18:35:00
2:55 PM,64.4,44.6,49,30.11,10.0,WNW,8.1,-,N/A,,Clear,300,2012-10-22 18:55:00
3:15 PM,64.4,44.6,49,30.11,10.0,WNW,9.2,-,N/A,,Clear,290,2012-10-22 19:15:00
3:35 PM,64.4,44.6,49,30.11,10.0,West,10.4,-,N/A,,Clear,280,2012-10-22 19:35:00
3:55 PM,64.4,46.4,52,30.10,10.0,West,8.1,-,N/A,,Clear,280,2012-10-22 19:55:00
4:15 PM,64.4,46.4,52,30.10,10.0,West,6.9,-,N/A,,Clear,280,2012-10-22 20:15:00
4:35 PM,64.4,46.4,52,30.10,10.0,West,6.9,-,N/A,,Clear,280,2012-10-22 20:35:00
4:55 PM,64.4,46.4,52,30.10,10.0,NW,6.9,-,N/A,,Clear,310,2012-10-22 20:55:00
5:15 PM,64.4,46.4,52,30.10,10.0,WNW,4.6,-,N/A,,Clear,300,2012-10-22 21:15:00
5:35 PM,62.6,48.2,59,30.10,10.0,WNW,6.9,-,N/A,,Clear,290,2012-10-22 21:35:00
5:55 PM,62.6,48.2,59,30.10,10.0,West,4.6,-,N/A,,Clear,280,2012-10-22 21:55:00
6:15 PM,60.8,48.2,63,30.10,10.0,West,4.6,-,N/A,,Clear,280,2012-10-22 22:15:00
6:35 PM,59.0,48.2,67,30.11,10.0,West,4.6,-,N/A,,Clear,280,2012-10-22 22:35:00
6:55 PM,59.0,48.2,67,30.12,10.0,West,4.6,-,N/A,,Clear,270,2012-10-22 22:55:00
7:15 PM,59.0,48.2,67,30.12,10.0,West,4.6,-,N/A,,Clear,260,2012-10-22 23:15:00
7:35 PM,57.2,48.2,72,30.12,10.0,WSW,3.5,-,N/A,,Clear,250,2012-10-22 23:35:00
7:55 PM,57.2,48.2,72,30.12,10.0,West,4.6,-,N/A,,Clear,260,2012-10-22 23:55:00
8:15 PM,57.2,46.4,67,30.12,10.0,West,4.6,-,N/A,,Clear,260,2012-10-23 00:15:00
8:35 PM,57.2,46.4,67,30.13,10.0,West,4.6,-,N/A,,Clear,260,2012-10-23 00:35:00
8:55 PM,57.2,48.2,72,30.13,10.0,WSW,5.8,-,N/A,,Clear,250,2012-10-23 00:55:00
9:15 PM,57.2,48.2,72,30.12,10.0,West,5.8,-,N/A,,Clear,260,2012-10-23 01:15:00
9:55 PM,59.0,48.2,67,30.13,10.0,WSW,5.8,-,N/A,,Clear,250,2012-10-23 01:55:00
10:15 PM,57.2,48.2,72,30.13,10.0,West,4.6,-,N/A,,Clear,260,2012-10-23 02:15:00
10:35 PM,57.2,48.2,72,30.13,10.0,West,5.8,-,N/A,,Clear,260,2012-10-23 02:35:00
10:55 PM,57.2,48.2,72,30.13,10.0,West,6.9,-,N/A,,Clear,260,2012-10-23 02:55:00
11:15 PM,57.2,46.4,67,30.13,10.0,WSW,5.8,-,N/A,,Clear,250,2012-10-23 03:15:00
11:35 PM,55.4,46.4,72,30.12,10.0,Calm,Calm,-,N/A,,Clear,0,2012-10-23 03:35:00
11:55 PM,55.4,46.4,72,30.13,10.0,WSW,3.5,-,N/A,,Clear,250,2012-10-23 03:55:00